[[{"header":{"parameterUnit":"m.s-1","parameterCategory":1,"la1":30.2991,"la2":30.254,"lo1":-89.0895,"lo2":-89.0444,"dy":0.0017,"dx":0.0017,"nx":28,"ny":28,"refTime":"2025-09-15T21:00:00:Z","depth":0,"parameterNumber":2,"parameterNumberName":"U-component_of_WINDS"},"data":[0,0,0,0,0,0,0,0,0,0,0,0,0,0,0,0,0,0,0,0,0,0,0,0,0,0,0,0,0,0,0,0,0,0,0,0,0,0,0,0,0,0,0,0,0,0,0,0,0,0,0,0,0,0,0,0,0,0,0.5307,0.5307,0,0.5358,0.5358,0.5359,0.5391,0.5391,0.5391,0.5391,0.5444,0.5446,0.5447,0,0,0,0,0,0,0,0,0,0,0,0,0,0.5238,0.524,0.5307,0.5307,0.5308,0.5357,0.5358,0.5359,0.5391,0.5391,0.5391,0.5391,0.5444,0.5446,0.5447,0,0,0,0,0,0,0,0,0,0,0,0,0,0.5277,0.524,0.5307,0.533,0.5332,0.5357,0.5358,0.5359,0.5391,0.5391,0.5391,0.5391,0.5444,0.5445,0.5447,0.5453,0,0,0.5453,0.5454,0,0,0,0,0,0,0,0,0.5274,0.5279,0.5326,0.5328,0.5331,0.5368,0.5354,0.5391,0.539,0.5369,0.5391,0.5391,0.5419,0.5423,0.5432,0.5456,0.5458,0.5453,0.5454,0.5455,0.5456,0,0,0,0,0,0,0,0.5272,0.5277,0.5327,0.5326,0.533,0.5338,0.5344,0.5361,0.5392,0.537,0.5373,0.5378,0.542,0.543,0.5433,0.5459,0.5453,0.5455,0.5456,0.5457,0.549,0.549,0,0,0,0,0,0,0.5265,0.5275,0.5325,0.5328,0.5303,0.5339,0.5345,0.5356,0.5392,0.5397,0.5378,0.538,0.5427,0.5431,0.5435,0.5445,0.5455,0.5457,0.5458,0.5491,0.549,0.549,0,0,0,0,0,0,0.5264,0.5269,0.5323,0.5302,0.531,0.534,0.5351,0.5357,0.5366,0.5397,0.5403,0.5382,0.5427,0.5433,0.5449,0.5447,0.5458,0.5459,0.5491,0.5491,0.549,0.5463,0,0,0,0,0,0,0.5261,0.5269,0.5271,0.5302,0.5311,0.5335,0.5351,0.5358,0.5369,0.5372,0.5402,0.5408,0.5428,0.5446,0.545,0.545,0.5461,0.5491,0.5491,0.549,0.5464,0.5462,0.546,0,0,0,0,0,0.5259,0.5262,0.5271,0.5277,0.5314,0.5335,0.534,0.5362,0.5369,0.5372,0.5392,0.5407,0.5446,0.5447,0.5453,0.5452,0.5491,0.5491,0.549,0.5465,0.5463,0.546,0,0,0,0,0,0,0.5231,0.5266,0.5277,0.529,0.5309,0.534,0.5345,0.5359,0.5377,0.5378,0.5406,0.5412,0.5425,0.5441,0.5441,0.546,0.5471,0.5471,0.545,0.5447,0.5445,0.5441,0.5462,0,0,0,0,0,0.5226,0.5239,0.527,0.5279,0.5288,0.5314,0.5324,0.534,0.5361,0.5369,0.539,0.5411,0.5428,0.5438,0.5456,0.5467,0.5474,0.5469,0.5467,0.5465,0.5465,0.5472,0.547,0.5488,0.5488,0.5488,0,0,0.5216,0.5237,0.5244,0.5273,0.529,0.5304,0.5321,0.5335,0.5345,0.5372,0.5388,0.5404,0.5428,0.5441,0.5449,0.5455,0.5462,0.5465,0.5463,0.5464,0.5471,0.5469,0.5468,0.5488,0.5488,0.5488,0,0,0.5206,0.5223,0.5232,0.5248,0.5273,0.5291,0.5293,0.5322,0.5333,0.535,0.5369,0.5382,0.5411,0.5427,0.544,0.5434,0.5449,0.5439,0.5428,0.5434,0.5432,0.5431,0.5429,0.5428,0.5439,0.5439,0.5439,0,0.5191,0.5212,0.5235,0.5247,0.5259,0.5283,0.5292,0.5307,0.5336,0.5344,0.535,0.5386,0.5405,0.5422,0.542,0.543,0.5433,0.5436,0.543,0.543,0.5429,0.5427,0.5426,0.5438,0.5438,0.5438,0.5438,0,0.5192,0.5206,0.521,0.5237,0.525,0.5261,0.5285,0.5295,0.531,0.5327,0.5343,0.5365,0.5387,0.5393,0.5407,0.5412,0.5415,0.5425,0.5436,0.5425,0.5424,0.5424,0.5436,0.5436,0.5437,0.5437,0,0,0.5165,0.5204,0.5206,0.5218,0.5247,0.5258,0.527,0.5291,0.5299,0.5318,0.5329,0.5352,0.5362,0.5375,0.5392,0.5397,0.5391,0.5407,0.5408,0.5403,0.5397,0.5388,0.5387,0.54,0.54,0.54,0.5395,0,0.5159,0.5181,0.5201,0.5216,0.5229,0.5252,0.5262,0.5281,0.5297,0.531,0.5328,0.5344,0.5356,0.5365,0.5371,0.539,0.539,0.5391,0.541,0.5411,0.5403,0.5387,0.5378,0.5372,0.5394,0.5394,0.5394,0,0.5154,0.5172,0.5187,0.5214,0.5221,0.5229,0.525,0.5263,0.5285,0.5296,0.5311,0.5328,0.5341,0.535,0.5369,0.5369,0.5378,0.5389,0.5389,0.5392,0.5402,0.5389,0.537,0.5369,0.5394,0.5394,0.5394,0,0.5133,0.516,0.5173,0.5183,0.5215,0.5221,0.5234,0.5256,0.5267,0.5285,0.5293,0.5312,0.5323,0.5338,0.5359,0.5364,0.5375,0.5387,0.5385,0.5384,0.5386,0.5386,0.5369,0.5393,0.5393,0.5393,0.5393,0,0.5123,0.5132,0.5164,0.5172,0.5182,0.5206,0.5215,0.5231,0.525,0.5261,0.5282,0.5292,0.532,0.5334,0.5351,0.5363,0.5368,0.5378,0.5382,0.5376,0.5374,0.5382,0.5383,0.5392,0.5393,0.5393,0.5393,0,0.5101,0.5123,0.5138,0.5167,0.5174,0.518,0.5205,0.5214,0.5231,0.5244,0.5249,0.5276,0.5293,0.5316,0.534,0.5351,0.5361,0.5369,0.5354,0.5356,0.5353,0.5353,0.534,0.534,0.5364,0.5363,0.5363,0,0.5094,0.5101,0.513,0.5138,0.5151,0.5165,0.5176,0.52,0.5211,0.5236,0.5241,0.5259,0.5275,0.5301,0.5323,0.5341,0.5349,0.5343,0.5352,0.5345,0.5348,0.5347,0.5348,0.5341,0.534,0.534,0.534,0,0.5078,0.5088,0.5103,0.5122,0.5134,0.515,0.5167,0.5173,0.5201,0.5212,0.5229,0.5241,0.5265,0.5283,0.5304,0.5318,0.5333,0.5337,0.5337,0.5331,0.5322,0.5326,0.5348,0.5337,0.5337,0.5338,0.5338,0.5338,0.5062,0.5069,0.5091,0.5107,0.5122,0.5137,0.5146,0.5164,0.5179,0.52,0.5213,0.5229,0.525,0.528,0.5294,0.5307,0.5313,0.5314,0.5314,0.5314,0.5311,0.532,0.5311,0.5311,0.5311,0.5311,0.5311,0,0.5047,0.5062,0.5076,0.5099,0.5112,0.5124,0.5144,0.5153,0.5167,0.5185,0.52,0.522,0.5237,0.5259,0.5278,0.5284,0.5292,0.5288,0.5288,0.5291,0.5305,0.5302,0.5282,0.5282,0.5282,0.5282,0.5282,0.5282,0.5041,0.5053,0.5066,0.5086,0.5101,0.5116,0.5126,0.514,0.5155,0.5175,0.519,0.5204,0.5224,0.5244,0.526,0.5266,0.5272,0.5267,0.5275,0.5287,0.529,0.5293,0.529,0.5268,0.5268,0.526,0.526,0.526]},{"header":{"parameterUnit":"m.s-1","parameterCategory":1,"la1":30.2991,"la2":30.254,"lo1":-89.0895,"lo2":-89.0444,"dy":0.0017,"dx":0.0017,"nx":28,"ny":28,"refTime":"2025-09-15T21:00:00:Z","depth":0,"parameterNumber":3,"parameterNumberName":"V-component_of_WINDS"},"data":[0,0,0,0,0,0,0,0,0,0,0,0,0,0,0,0,0,0,0,0,0,0,0,0,0,0,0,0,0,0,0,0,0,0,0,0,0,0,0,0,0,0,0,0,0,0,0,0,0,0,0,0,0,0,0,0,0,0,1.5997,1.5996,0,1.5968,1.5968,1.5967,1.5974,1.5974,1.5975,1.5975,1.5944,1.5943,1.5941,0,0,0,0,0,0,0,0,0,0,0,0,0,1.6053,1.6052,1.5997,1.5996,1.5996,1.5968,1.5968,1.5967,1.5974,1.5974,1.5975,1.5976,1.5944,1.5943,1.5941,0,0,0,0,0,0,0,0,0,0,0,0,0,1.6027,1.6052,1.5997,1.5996,1.5996,1.5968,1.5968,1.5967,1.5974,1.5974,1.5975,1.5976,1.5945,1.5943,1.5941,1.5912,0,0,1.5935,1.5934,0,0,0,0,0,0,0,0,1.6029,1.6025,1.5996,1.5996,1.5995,1.5975,1.5976,1.5948,1.5973,1.5982,1.5975,1.5976,1.5953,1.5951,1.5944,1.591,1.5909,1.5934,1.5933,1.5932,1.5932,0,0,0,0,0,0,0,1.603,1.6026,1.5985,1.5996,1.5995,1.5996,1.5993,1.5971,1.5963,1.5981,1.5982,1.5978,1.5953,1.5945,1.5943,1.5908,1.5935,1.5933,1.5931,1.5931,1.5846,1.5845,0,0,0,0,0,0,1.6033,1.6028,1.5986,1.5984,1.6014,1.5994,1.5991,1.5981,1.5964,1.5962,1.5978,1.5979,1.5949,1.5945,1.5942,1.5904,1.5932,1.593,1.5929,1.5847,1.5846,1.5845,0,0,0,0,0,0,1.6034,1.6029,1.5987,1.6006,1.6001,1.5992,1.5981,1.598,1.5972,1.5961,1.5959,1.5971,1.5949,1.5945,1.5918,1.5903,1.593,1.5928,1.5848,1.5847,1.5845,1.583,0,0,0,0,0,0,1.6036,1.603,1.602,1.6006,1.6,1.5966,1.598,1.5979,1.5969,1.597,1.5954,1.5953,1.5949,1.5921,1.5916,1.5901,1.5926,1.5849,1.5847,1.5846,1.5831,1.5828,1.5824,0,0,0,0,0,1.6038,1.6017,1.6019,1.6014,1.5987,1.5965,1.5961,1.5959,1.5968,1.5956,1.5949,1.5953,1.5906,1.5919,1.5913,1.5896,1.585,1.5848,1.5846,1.5833,1.5828,1.5825,0,0,0,0,0,0,1.6029,1.6015,1.6017,1.5992,1.5979,1.5966,1.5952,1.5954,1.5939,1.5941,1.5937,1.5934,1.5906,1.5899,1.5914,1.5866,1.5879,1.5876,1.5871,1.5867,1.5863,1.5865,1.5924,0,0,0,0,0,1.6024,1.6008,1.5996,1.5974,1.5968,1.5961,1.5951,1.595,1.5937,1.5932,1.5922,1.5909,1.589,1.5879,1.5861,1.5831,1.5826,1.5816,1.5813,1.581,1.5806,1.5786,1.5781,1.5837,1.5837,1.5837,0,0,1.6013,1.6004,1.5994,1.5972,1.5963,1.5944,1.5957,1.5938,1.5923,1.5929,1.5903,1.5895,1.588,1.585,1.5837,1.5843,1.579,1.5807,1.5805,1.5803,1.5783,1.5778,1.5773,1.5835,1.5836,1.5836,0,0,1.5984,1.5976,1.5956,1.5946,1.5931,1.5926,1.5921,1.5907,1.5902,1.5876,1.5879,1.5861,1.5831,1.5818,1.5808,1.5772,1.5774,1.5766,1.5748,1.5728,1.5723,1.5719,1.5703,1.5698,1.5763,1.5763,1.5763,0,1.5973,1.5946,1.5945,1.5925,1.5914,1.5918,1.5895,1.5886,1.5866,1.5857,1.5865,1.5825,1.5815,1.5781,1.5772,1.5764,1.5756,1.5767,1.5724,1.572,1.5717,1.5701,1.5696,1.5762,1.5762,1.5762,1.5762,0,1.5931,1.5913,1.5898,1.5878,1.5866,1.5845,1.5838,1.5826,1.5825,1.5819,1.579,1.5778,1.5757,1.575,1.5749,1.5715,1.5719,1.5726,1.5739,1.571,1.5695,1.569,1.5761,1.5761,1.5761,1.5761,0,0,1.5896,1.5875,1.5869,1.5859,1.5842,1.5826,1.5804,1.5784,1.5772,1.5758,1.5737,1.571,1.5715,1.5704,1.5702,1.5685,1.5653,1.5693,1.5693,1.5684,1.561,1.5603,1.5596,1.5655,1.5654,1.5653,1.561,0,1.5864,1.5826,1.5823,1.5788,1.5769,1.5771,1.5751,1.5738,1.5731,1.5712,1.5704,1.5684,1.5694,1.5687,1.567,1.566,1.5637,1.5664,1.5633,1.5632,1.5635,1.5589,1.5583,1.5543,1.5605,1.5604,1.5603,0,1.5821,1.5805,1.5768,1.575,1.5742,1.5725,1.5704,1.5688,1.5671,1.5667,1.5653,1.5652,1.5627,1.5642,1.5606,1.5624,1.5611,1.5604,1.5602,1.5598,1.5614,1.5581,1.5531,1.5524,1.5595,1.5595,1.5596,0,1.5796,1.5765,1.5738,1.5729,1.5709,1.5696,1.5687,1.5672,1.5658,1.564,1.5631,1.561,1.5598,1.5581,1.5573,1.5586,1.5536,1.5552,1.553,1.553,1.5518,1.5518,1.5463,1.5514,1.5514,1.5514,1.5514,0,1.5759,1.5735,1.5725,1.5709,1.5681,1.5677,1.565,1.5641,1.5627,1.5607,1.5608,1.5589,1.5582,1.5561,1.5555,1.5524,1.5519,1.5513,1.5511,1.5511,1.5512,1.5502,1.5503,1.5512,1.5513,1.5513,1.5513,0,1.5725,1.5718,1.5689,1.5672,1.5667,1.5647,1.5631,1.5614,1.5607,1.5581,1.5575,1.5563,1.5538,1.5529,1.5499,1.5495,1.5458,1.546,1.5463,1.5462,1.544,1.5441,1.5374,1.5363,1.5424,1.5423,1.5423,0,1.5701,1.5683,1.5664,1.565,1.564,1.562,1.5606,1.56,1.5585,1.5563,1.5548,1.5523,1.5503,1.5462,1.545,1.5426,1.5425,1.5404,1.5422,1.5421,1.5421,1.5422,1.5418,1.5399,1.5399,1.5398,1.5398,0,1.5658,1.5655,1.5636,1.5614,1.5597,1.558,1.5563,1.5552,1.5544,1.5526,1.5501,1.5485,1.5453,1.5427,1.5403,1.5391,1.5392,1.5392,1.5385,1.5384,1.5386,1.5382,1.5451,1.5394,1.5394,1.5394,1.5395,1.5395,1.5627,1.5609,1.5592,1.557,1.5556,1.554,1.5522,1.5511,1.549,1.5464,1.5462,1.5433,1.5414,1.538,1.5368,1.5344,1.535,1.5341,1.5338,1.5335,1.5331,1.5392,1.534,1.534,1.534,1.534,1.534,0,1.5581,1.557,1.5549,1.5525,1.5506,1.551,1.549,1.5474,1.5449,1.5432,1.5411,1.538,1.5354,1.5339,1.5312,1.5296,1.5295,1.5289,1.5289,1.5285,1.5329,1.5337,1.5289,1.5289,1.5289,1.5289,1.529,1.529,1.5555,1.5525,1.5519,1.5481,1.547,1.5442,1.543,1.5414,1.54,1.5365,1.5343,1.5334,1.5316,1.5288,1.5263,1.5259,1.5248,1.524,1.5236,1.5278,1.5283,1.5288,1.5294,1.5239,1.5239,1.5194,1.5194,1.5193]}]]